Showing default

GEESAT 1-07, 52791

Orbit data source: Space-Track

GEESAT 1-07, 52791 is a payload satellite owned by GeeSpace (CN) in LEO that was launched on Thu, 02 Jun 2022 UTC via a CHANG ZHENG 2C launch vehicle from the Xichang Space Center, China (XSC). Payload-class satellites include a variety of spacecraft equipped with specific instruments for various scientific and technological missions. These include communications satellites like Starlink; space stations such as the ISS; scientific satellites like the Hubble; Earth observation satellites from companies like Planet Labs, Umbra, and HawkEye 360; GPS; miniature CubeSats for education and research; and military/defense satellites.

Loading next visibility...
Identifier
52791, 2022-058G
Orbit
LEO
Country
Flag of CNCN / PRC
Related business
Manufacturer
GWCG
Mission
Operational Commercial Navigation
Bus & Motor
GPS100, Unknown motor
Mass
130 kg wet, 130 kg dry
Launch date (UTC)
2022-06-02 (4 years ago)
Launch vehicle
CHANG ZHENG 2C
Launch site
Xichang Space Center, China (XSC)
Object type
Payload
Rocket body
Debris
Shape & HBR
Box + 2 Pan, 1.0 m
Radar Cross Section
0.833 m², Medium (>0.1 m² and < 1m²)

Expand to show TLE details & history
Last TLE update: 16 hours ago

TLE from 16 hours ago
0 GEESAT 1-07
1 52791U 22058G   25348.95497965  .00003746  00000-0  34069-3 0  9992
2 52791  49.9899 336.2648 0002414  68.2731 291.8470 14.97320427192567
Epoch: 2025-12-14T22:55Z
TLE epoch observation values (Epoch: 2025-12-14T22:55:10.241Z)
Latitude
-0.00001°
Longitude
-91.38836°
Altitude
575.102 km
Speed
7.575 km/s
True Right ascension
22h 25m 03s
True Declination
0° 00' 00"
Sunlit
Object was in daylight at epoch
Visualization orbit readout
Latitude
Unknown
Longitude
Unknown
Altitude
Unknown
Speed
Unknown
Apparent Right ascension
Unknown
Apparent Declination
Unknown
Sunlit
N/A
Visualization observer readout
Local Sidereal Time
13:26:16
Azimuth
Unknown
Elevation
Unknown
Doppler factor
Unknown
Orbital elements
Apogee altitude
577.623 km
Perigee altitude
574.265 km
Semi-major axis
6,954.081 km
Eccentricity
0.00024
Inclination
49.9899°
RAAN
336.2648°
Arg. of periapsis
68.2731°
True anomaly
291.82132°
Mean anomaly
291.847°
Eccentric anomaly
291.83416°
Mean motion
3.74269 °/min
Orbital period
96.19 mins
BSTAR
0.00034069
Loading maneuver chart data...
Computing Atmospheric mass density...
Loading historical data...
Loading historical data...
Loading historical data...
Loading historical data...
Loading historical data...
Loading historical data...
Loading historical data...

Documentation

Showing up to 5 results
|